EHI
0 0 0 0 0 0 0 0 0 0 0 0 0 0 0 0 0 0 0 0 0 0 0 0 0 0 0 0 0 0 0 0 0 0 0 0 0 0 0 0 0 0 0
0 0 0 0 0 0 0 0 0 0 0 0 0 0 0 0 0 0 0 0 0 0 0 0 0 0 0 0 0 0 0 0 0 0 0 0 0 0 0 0 0 0 0
0 0 0 0 0 0 0 0 0 0 0 0 0 0 0 0 0 0 0 0 0 0 0 0 0 0 0 0 0 0 0 0 0 0 0 0 0 0 0 0 0 0 0
0 0 0 0 0 0 0 0 0 0 0 0 0 0 0 0 0 0 0 0 0 0 0 0 0 0 0 0 0 0 0 0 0 0 0 0 0 0 0 0 0 0 0
0 0 0 0 0 0 0 0 0 0 0 0 0 0 0 0 0 0 0 0 0 0 0 0 0 0 0 0 0 0 0 0 0 0 0 0 0 0 0 0 0 0 0
0 0 0 0 0 0 0 0 0 0 0 0 0 0 0 0 0 0 0 0 0 0 0 0 0 0 0 0 0 0 0 0 0 0 0 0 0 0 0 0 0 0 0
0 0 0 0 0 0 0 0 0 0 0 0 0 0 0 0 0 0 0 0 0 0 0 0 0 0 0 0 0 0 0 0 0 0 0 0 0 0 0 0 0 0 0
0 0 0 0 0 0 0 0 0 0 0 0 0 0 0 0 0 0 0 0 0 0 0 0 0 0 0 0 0 0 0 0 0 0 0 0 0 0 0 0 0 0 0
0 0 0 0 0 0 0 0 0 0 0 0 0 0 0 0 0 0 0 0 0 0 0 0 0 0 0 0 0 0 0 0 0 0 0 0 0 0 0 0 0 0 0
0 0 0 0 0 0 0 0 0 0 0 0 0 0 0 0 0 0 0 0 0 0 0 0 0 0 0 0 0 0 0 0 0 0 0 0 0 0 0 0 0 0 0
0 0 0 0 0 0 0 0 0 0 0 0 0 0 0 0 0 0 0 0 0 0 0 0 0 0 0 0 0 0 0 0 0 0 0 0 0 0 0 0 0 0 0
0 0 0 0 0 0 0 0 0 0 0 0 0 0 0 0 0 0 0 0 0 0 0 0 0 0 0 0 0 0 0 0 0 0 0 0 0 0 0 0 0 0 0
0 0 0 0 0 0 0 0 0 0 0 0 0 0 0 0 0 0 0 0 0 0 0 0 0 0 0 0 0 0 0 0 0 0 0 0 0 0 0 0 0 0 0
0 0 0 0 0 0 0 0 0 0 0 0 0 0 0 0 0 0 0 0 0 0 0 0 0 0 0 0 0 0 0 0 0 0 0 0 0 0 0 0 0 0 0
0 0 0 0 0 0 0 0 0 0 0 0 0 0 0 0 0 0 0 0 0 0 0 0 0 0 0 0 0 0 0 0 0 0 0 0 0 0 0 0 0 0 0
0 0 0 0 0 0 0 0 0 0 0 0 0 0 0 0 0 0 0 0 0 0 0 0 0 0 0 0 0 0 0 0 0 0 0 0 0 0 0 0 0 0 0
0 0 0 0 0 0 0 0 0 0 0 0 0 0 0 0 0 0 0 0 0 0 0 0 0 0 0 0 0 0 0 0 0 0 0 0 0 0 0 0 0 0 0
0 0 0 0 0 0 0 0 0 0 0 0 0 0 0 0 0 0 0 0 0 0 0 0 0 0 0 0 0 0 0 0 0 0 0 0 0 0 0 0 0 0 0
0 0 0 0 0 0 0 0 0 0 0 0 0 0 0 0 0 0 0 0 0 0 0 0 0 0 0 0 0 0 0 0 0 0 0 0 0 0 0 0 0 0 0
0 0 0 0 0 0 0 0 0 0 0 0 0 0 0 0 0 0 0 0 0 0 0 0 0 0 0 0 0 0 0 0 0 0 0 0 0 0 0 0 0 0 0
0 0 0 0 0 0 0 0 0 0 0 0 0 0 0 0 0 0 0 0 0 0 0 0 0 0 0 0 0 0 0 0 0 0 0 0 0 0 0 0 0 0 0
0 0 0 0 0 0 0 0 0 0 0 0 0 0 0 0 0 0 0 0 0 0 0 0 0 0 0 0 0 0 0 0 0 0 0 0 0 0 0 0 0 0 0
0 0 0 0 0 0 0 0 0 0 0 0 0 0 0 0 0 0 0 0 0 0 0 0 0 0 0 0 0 0 0 0 0 0 0 0 0 0 0 0 0 0 0
0 0 0 0 0 0 0 0 0 0 0 0 0 0 0 0 0 0 0 0 0 0 0 0 0 0 0 0 0 0 0 0 0 0 0 0 0 0 0 0 0 0 0
0 0 0 0 0 0 0 0 0 0 0 0 0 0 0 0 0 0 0 0 0 0 0 0 0 0 0 0 0 0 0 0 0 0 0 0 0 0 0 0 0 0 0
0 0 0 0 0 0 0 0 0 0 0 0 0 0 0 0 0 0 0 0 0 0 0 0 0 0 0 0 0 0 0 0 0 0 0 0 0 0 0 0 0 0 0
Wind_Speed
1 2 2 2 2 2 2 2 3 2 2 2 2 2 2 2 2 2 2 2 3 2 3 4 4 3 3 3 3 3 3 3 3 1 1 1 2 2 2 2 3 3 3
2 1 2 2 2 2 2 3 2 2 2 2 2 2 2 2 2 3 3 3 3 4 3 4 4 3 4 4 3 4 3 3 4 3 1 1 1 2 2 2 2 2 2
1 1 2 2 2 3 3 3 2 3 3 2 2 3 2 2 3 3 3 3 3 4 4 4 4 5 4 4 4 4 3 3 3 4 3 1 1 1 2 2 2 2 1
1 1 2 3 3 3 3 3 3 3 3 3 3 3 3 3 3 2 3 3 3 3 3 4 4 5 6 6 5 5 4 4 4 4 3 2 1 1 2 2 1 1 1
1 2 3 3 3 2 2 2 2 3 3 3 3 3 2 2 2 2 3 3 3 3 3 3 4 6 7 7 5 6 6 5 4 4 3 2 2 3 3 2 2 1 1
2 3 2 2 2 2 3 3 2 3 3 3 3 3 3 3 4 4 3 3 3 4 4 3 3 4 7 8 9 10 10 8 7 5 4 4 4 4 3 3 3 2 1
2 3 2 2 2 3 3 2 3 3 3 3 3 4 4 4 5 5 5 3 3 4 4 4 3 4 5 4 6 9 10 11 11 8 7 7 6 7 6 5 4 3 2
2 3 3 3 3 2 2 3 4 3 3 4 4 4 4 5 6 5 5 3 2 3 4 5 5 4 4 5 5 5 5 6 8 7 7 7 6 7 8 7 5 3 1
2 3 3 3 3 2 3 4 3 3 3 4 3 4 4 5 6 6 5 2 2 4 4 4 5 4 6 7 6 5 5 4 5 7 6 6 8 10 9 6 5 4 2
4 4 3 3 3 3 4 4 3 3 4 4 4 4 4 4 5 6 6 3 3 3 3 3 6 6 7 8 7 7 7 6 5 5 4 4 5 8 12 8 7 5 3
4 4 3 3 4 4 3 3 3 3 3 3 4 3 4 5 5 6 6 3 4 3 3 3 3 7 8 9 8 7 8 6 5 5 4 3 3 4 5 5 5 5 4
3 3 3 3 3 3 2 3 2 3 3 3 3 3 3 4 5 6 7 7 5 4 4 3 3 6 7 8 7 7 8 7 4 4 4 4 4 4 4 4 4 3 3
3 4 4 3 3 3 3 3 3 3 3 3 3 4 3 2 3 6 7 7 6 4 4 5 5 6 6 5 7 8 7 5 4 4 5 5 4 4 4 3 3 2 1
3 4 3 3 3 3 2 3 3 3 4 4 4 4 3 2 2 3 3 4 4 3 3 3 4 5 4 4 4 4 5 5 5 5 5 4 3 4 4 4 3 3 2
3 4 3 3 3 3 3 3 4 4 5 5 5 5 4 4 5 6 4 4 4 3 2 1 1 1 2 2 2 3 4 4 5 4 4 4 4 4 3 3 3 3 3
3 3 3 3 2 2 2 3 4 4 6 7 6 5 5 5 5 6 7 6 6 6 3 2 2 3 3 4 4 4 4 5 5 5 5 5 5 5 4 3 3 4 4
4 4 3 3 3 3 3 3 3 3 3 5 5 6 5 5 5 6 7 6 6 7 3 3 4 4 3 3 3 4 4 4 4 5 5 6 5 5 5 5 5 4 4
5 5 5 4 4 3 3 3 3 3 3 2 4 6 6 5 5 5 5 4 3 4 3 4 4 4 4 4 4 4 4 3 4 4 5 5 6 6 6 6 6 6 5
4 4 4 4 4 4 4 3 3 4 3 3 2 3 4 4 4 4 5 3 4 4 4 4 4 4 4 4 4 4 4 4 4 5 5 6 6 6 5 6 6 7 6
4 7 6 4 3 3 4 4 4 4 4 3 3 3 2 2 2 3 4 4 4 4 4 4 4 4 4 4 4 3 4 4 4 4 5 5 6 6 7 7 6 6 6
4 5 7 5 4 4 4 4 4 4 5 4 4 4 5 4 4 4 4 4 4 5 5 5 4 4 4 4 4 4 5 4 4 4 4 5 5 6 6 6 6 6 6
4 4 4 4 4 4 4 4 4 5 5 5 3 3 6 4 4 4 4 5 5 4 4 4 4 4 4 5 5 5 5 5 4 4 4 5 5 5 5 5 5 5 5
4 4 4 4 4 5 5 4 4 4 4 4 4 3 4 4 4 4 5 4 4 4 4 4 4 4 4 4 5 5 6 6 6 5 5 5 5 5 5 6 7 6 6
4 4 5 4 4 4 4 4 4 4 4 4 4 4 4 4 4 5 5 4 4 4 4 4 5 6 7 5 4 4 5 5 5 5 6 6 6 6 5 6 7 7 7
4 4 4 4 4 4 4 4 4 4 4 4 4 4 4 4 4 4 4 4 4 4 5 5 4 5 7 7 6 6 7 7 6 4 4 5 6 6 6 7 6 6 6
4 4 4 4 4 4 4 4 4 4 5 4 4 4 4 4 4 4 4 4 4 4 4 4 5 6 6 6 7 7 7 7 8 7 5 5 6 6 6 6 7 7 7
Wind_Direction
216 221 221 220 215 208 214 233 231 228 226 209 210 202 199 197 186 177 197 192 192 205 197 185 191 174 170 166 154 147 146 137 143 150 102 98 100 101 73 60 61 50 55
217 208 224 228 217 219 235 239 231 225 221 213 208 206 208 202 193 188 200 203 200 203 207 197 195 177 174 167 163 165 162 149 144 155 149 121 114 132 110 87 69 67 61
218 202 219 227 225 230 242 245 236 225 221 212 200 207 213 209 205 205 203 203 208 206 202 203 197 177 183 175 171 169 164 155 138 144 151 129 110 123 100 82 68 30 56
226 212 228 235 232 236 240 238 230 222 216 212 208 213 211 211 204 205 206 205 208 211 205 205 200 190 188 180 177 173 160 149 138 139 142 140 132 130 127 130 94 28 21
219 231 247 253 247 249 247 246 234 223 223 211 204 213 212 210 208 207 209 208 205 211 211 209 211 207 199 188 180 173 162 155 152 152 154 147 160 165 179 169 161 127 329
227 246 254 256 256 249 246 242 234 230 225 209 208 207 213 229 229 215 204 203 204 206 213 216 218 213 208 201 195 181 171 166 170 168 172 180 190 182 157 159 151 151 238
251 258 252 244 251 249 246 237 232 233 223 219 221 211 214 228 229 223 214 200 206 212 214 206 212 214 203 193 193 187 189 188 178 171 178 192 186 183 165 165 177 176 197
255 259 256 248 251 252 241 237 238 233 224 224 224 220 220 233 231 226 216 206 217 219 217 210 204 214 200 187 180 181 191 199 195 187 190 195 187 175 175 174 167 144 110
277 267 260 247 246 248 249 245 241 232 232 230 224 217 219 237 232 222 209 196 223 232 228 217 204 208 209 185 174 181 192 209 204 192 185 182 178 171 159 137 141 147 188
271 264 259 244 235 240 247 248 243 234 234 231 233 226 222 232 232 224 211 195 220 236 234 227 214 210 208 188 183 185 198 208 184 180 177 174 173 174 172 170 167 164 167
272 265 255 245 238 239 246 249 244 236 234 231 232 234 228 233 234 226 214 204 213 223 224 226 225 214 210 202 196 200 206 186 175 172 167 164 159 168 180 181 176 170 173
279 274 266 258 257 263 246 251 242 226 229 234 235 243 243 239 235 233 224 221 219 219 225 224 224 217 216 210 204 210 197 166 158 163 169 180 183 187 188 184 185 189 188
288 282 280 279 268 254 237 240 245 233 228 234 229 237 246 238 237 237 233 228 225 227 227 220 218 215 213 211 211 204 184 168 167 178 192 199 194 182 162 154 154 152 118
285 287 282 276 275 269 253 239 233 231 229 231 232 234 238 231 224 223 222 222 219 230 230 218 211 205 201 206 203 199 187 184 184 194 196 185 160 157 166 165 166 161 155
282 285 281 270 263 262 258 246 240 234 230 228 226 220 218 229 231 222 207 209 205 203 188 170 161 175 199 204 200 190 188 184 192 189 180 173 171 174 177 169 165 161 179
278 279 272 267 255 250 257 282 270 250 255 248 243 233 235 237 233 220 223 218 206 187 170 188 194 201 214 215 212 203 197 197 196 191 185 183 184 186 181 173 171 177 193
261 266 265 260 250 246 247 250 274 283 265 252 246 239 239 239 229 221 222 214 198 181 195 207 206 207 215 220 221 212 207 206 194 191 191 190 187 185 181 184 186 190 200
264 266 268 260 249 240 239 240 244 245 254 260 252 242 238 232 230 228 211 182 193 198 215 218 216 214 214 215 221 220 211 198 195 199 197 193 189 187 187 192 194 197 200
263 261 260 261 255 241 238 238 239 236 242 252 264 255 241 230 226 212 187 195 204 213 218 222 218 217 219 217 221 219 208 204 203 202 201 197 192 191 197 198 199 202 199
263 270 274 264 259 250 241 239 237 232 234 233 236 237 220 196 204 206 208 215 212 217 219 220 217 217 217 214 218 216 209 204 203 207 207 201 196 196 202 201 199 199 203
261 263 269 269 257 253 245 238 235 231 232 231 229 229 217 210 213 214 215 219 217 218 219 219 215 214 214 212 213 212 212 211 207 208 207 203 200 201 204 202 202 202 202
259 258 253 251 252 254 254 246 236 232 230 231 233 225 221 221 219 222 221 225 224 221 219 216 215 214 212 212 211 210 216 215 211 212 211 205 203 206 205 202 202 202 201
261 264 264 257 250 252 255 246 238 235 232 230 226 222 218 223 226 229 228 226 223 222 220 216 217 220 220 219 214 209 215 219 211 207 210 205 203 206 207 207 204 202 205
266 265 264 260 254 250 245 248 246 238 234 233 229 226 224 227 231 234 231 228 223 221 219 218 218 221 222 223 219 218 221 225 216 204 207 210 206 206 207 208 206 207 205
275 269 266 262 257 250 244 244 244 239 235 233 232 234 234 235 236 237 232 226 225 226 224 223 223 224 224 224 224 225 222 220 218 211 209 212 211 208 208 209 207 204 205
286 278 273 267 256 245 240 240 240 238 233 232 232 232 233 235 234 233 229 226 230 231 226 223 227 230 230 228 228 228 224 221 217 213 211 213 212 212 209 211 207 204 203